EW8383 Weather Reports


Display with metric or nautical units.
time (UTC)temp
F
wind
direction
speed
MPH
gust
MPH
rain 1hr
in
rain 24hr
in
rain mn
in
humidity
%
barometer
mb
20260510230052 68 202 7.0 0.0 0.00 0.00 0.05 44 1017.4
20260510224553 68 239 5.0 0.0 0.00 0.00 0.05 43 1017.4
20260510223106 68 232 5.0 0.0 0.00 0.00 0.05 44 1017.4
20260510221548 68 200 6.0 0.0 0.00 0.00 0.05 45 1017.6
20260510220046 67 232 6.0 0.0 0.00 0.00 0.05 48 1017.6
20260510214547 66 215 6.0 0.0 0.00 0.00 0.05 49 1017.9
20260510213059 67 260 3.0 0.0 0.00 0.00 0.05 48 1018.1
20260510211544 66 242 5.0 0.0 0.00 0.00 0.05 47 1018.3
20260510210050 66 242 4.0 0.0 0.00 0.00 0.05 48 1018.4
20260510204551 65 261 4.0 0.0 0.00 0.00 0.05 52 1018.5
20260510203039 64 230 6.0 0.0 0.00 0.00 0.05 53 1018.5
20260510200035 63 268 4.0 0.0 0.00 0.00 0.05 55 1018.7
20260510194534 62 204 3.0 0.0 0.00 0.00 0.05 58 1018.9
20260510193032 63 206 4.0 0.0 0.00 0.00 0.05 56 1018.9
20260510191536 62 213 6.0 0.0 0.00 0.00 0.05 59 1019.0
20260510190027 60 219 4.0 0.0 0.00 0.00 0.05 60 1019.3
20260510184532 60 194 5.0 0.0 0.00 0.00 0.05 64 1019.3
20260510183023 60 189 6.0 0.0 0.00 0.00 0.05 64 1019.4
20260510181556 59 205 6.0 0.0 0.00 0.00 0.05 66 1019.5
20260510180034 58 194 5.0 0.0 0.00 0.00 0.05 67 1019.7
20260510174523 58 197 8.0 0.0 0.00 0.00 0.05 68 1019.8
20260510173017 57 188 7.0 0.0 0.00 0.00 0.05 71 1019.9
20260510171515 56 170 5.0 0.0 0.00 0.00 0.05 69 1020.0
20260510170016 56 166 3.0 0.0 0.00 0.00 0.05 69 1020.1
20260510164513 56 156 4.0 0.0 0.00 0.00 0.05 70 1020.0
20260510163013 56 217 3.0 0.0 0.00 0.00 0.05 72 1019.8
20260510161508 55 188 3.0 0.0 0.00 0.00 0.05 74 1019.8
20260510160009 54 209 4.0 0.0 0.00 0.00 0.05 77 1019.8
20260510154503 54 163 5.0 0.0 0.00 0.00 0.05 80 1019.7
20260510153107 53 171 4.0 0.0 0.00 0.00 0.05 84 1019.9
20260510153004 53 171 4.0 0.0 0.00 0.00 0.05 83 1019.9
20260510151558 52 198 3.0 0.0 0.00 0.00 0.05 85 1019.6
20260510150056 52 226 3.0 0.0 0.00 0.00 0.05 89 1019.6
20260510144556 51 213 3.0 0.0 0.00 0.00 0.05 91 1019.4
20260510143107 50 205 2.0 0.0 0.00 0.00 0.05 91 1019.5
20260510141556 50 203 3.0 0.0 0.00 0.00 0.05 91 1019.3
20260510134600 50 301 3.0 0.0 0.00 0.00 0.04 90 1019.1
20260510133053 51 303 3.0 0.0 0.00 0.00 0.03 90 1019.3
20260510131550 50 303 1.0 0.0 0.00 0.00 0.02 89 1019.1
20260510130049 50 304 1.0 0.0 0.00 0.00 0.02 89 1019.0
20260510124553 50 304 0.0 0.0 0.00 0.00 0.02 89 1018.7
20260510123047 50 304 1.0 0.0 0.00 0.00 0.02 89 1018.5
20260510121545 50 308 3.0 0.0 0.00 0.00 0.02 88 1018.2
20260510120044 50 326 4.0 0.0 0.00 0.00 0.02 87 1017.9
20260510114543 50 315 4.0 0.0 0.00 0.00 0.02 86 1017.8
20260510113044 50 291 3.0 0.0 0.00 0.00 0.02 87 1017.9
20260510111542 50 298 1.0 0.0 0.00 0.00 0.02 88 1017.8
20260510110039 50 301 3.0 0.0 0.00 0.00 0.02 88 1017.7
20260510104540 50 306 3.0 0.0 0.00 0.00 0.02 88 1017.6
20260510103043 50 314 4.0 0.0 0.00 0.00 0.02 89 1017.6
20260510101538 50 306 3.0 0.0 0.00 0.00 0.02 89 1017.5
20260510100047 50 304 4.0 0.0 0.00 0.00 0.02 88 1017.3
20260510094534 50 315 4.0 0.0 0.00 0.00 0.02 88 1017.2
20260510093042 51 302 2.0 0.0 0.00 0.00 0.02 88 1017.1
20260510091536 51 319 4.0 0.0 0.00 0.00 0.02 87 1016.5
20260510090029 51 19 5.0 0.0 0.00 0.00 0.02 88 1016.1
20260510084530 51 27 5.0 0.0 0.00 0.00 0.02 90 1016.0
20260510083023 51 35 6.0 0.0 0.00 0.00 0.02 90 1015.8
20260510081526 51 19 4.0 0.0 0.00 0.00 0.02 90 1015.5
20260510080027 52 301 4.0 0.0 0.00 0.00 0.02 90 1015.8
20260510074522 51 261 2.0 0.0 0.00 0.00 0.02 89 1016.1
20260510073022 52 259 2.0 0.0 0.00 0.00 0.01 89 1015.8
20260510071533 52 261 7.0 0.0 0.00 0.00 0.00 89 1016.0
20260510070015 52 248 3.0 0.0 0.00 0.00 0.00 88 1015.8
20260510063013 52 41 2.0 0.0 0.00 0.00 0.00 88 1015.2
20260510061521 52 355 1.0 0.0 0.00 0.00 0.00 88 1014.8
20260510060010 52 23 1.0 0.0 0.00 0.00 0.00 88 1015.4
20260510054510 52 25 0.0 0.0 0.00 0.00 0.00 88 1014.9
20260510053005 52 25 3.0 0.0 0.00 0.00 0.00 87 1014.4
20260510051504 52 38 3.0 0.0 0.00 0.00 0.00 86 1014.0
20260510050001 53 52 6.0 0.0 0.00 0.00 0.22 86 1013.7
20260510044502 52 77 13.0 0.0 0.00 0.00 0.22 87 1013.1
20260510043101 52 72 14.0 0.0 0.00 0.00 0.22 87 1013.0
20260510041559 53 55 13.0 0.0 0.00 0.00 0.22 86 1014.0
20260510034604 55 305 8.0 0.0 0.00 0.00 0.10 78 1016.0
20260510033113 58 305 9.0 0.0 0.00 0.00 0.05 65 1015.3
20260510031552 60 30 13.0 0.0 0.00 0.00 0.04 57 1013.4
20260510030045 61 54 18.0 0.0 0.00 0.00 0.04 51 1012.0
20260510024545 62 49 17.0 0.0 0.00 0.00 0.04 49 1010.7
20260510023038 63 40 15.0 0.0 0.00 0.00 0.04 46 1009.3
20260510021535 64 69 13.0 0.0 0.00 0.00 0.04 41 1008.5
20260510020032 65 51 11.0 0.0 0.00 0.00 0.04 41 1007.8
20260510014533 66 65 12.0 0.0 0.00 0.00 0.04 39 1007.2
20260510013028 68 62 12.0 0.0 0.00 0.00 0.04 37 1007.0
20260510011535 69 59 15.0 0.0 0.00 0.00 0.04 36 1006.6
20260510010027 70 71 16.0 0.0 0.00 0.00 0.04 36 1005.9
20260510004527 71 71 14.0 0.0 0.00 0.00 0.04 36 1005.7
20260510003054 72 58 14.0 0.0 0.00 0.00 0.04 36 1005.3
20260510001530 72 51 9.0 0.0 0.00 0.00 0.04 39 1005.2
20260510000024 70 311 4.0 0.0 0.00 0.00 0.04 51 1005.2
20260509234529 70 49 3.0 0.0 0.00 0.00 0.04 49 1005.3
20260509233123 69 32 8.0 0.0 0.00 0.00 0.04 42 1005.7
20260509231530 74 345 10.0 0.0 0.00 0.00 0.00 32 1005.9